Regional Weather Roundup
Issued by NWS

Home | Current Version | Previous Version | Graphics & Text | Print | Product List | Glossary Off
Versions: 1 2 3 4 5 6 7 8 9 10 11 12 13 14 15 16 17 18 19 20 21 22 23 24 25 26 27 28 29 30 31 32 33 34 35 36 37 38 39 40 41 42 43 44 45 46 47 48 49 50

000
ASUS43 KTOP 221208
RWRKS

WEATHER ROUNDUP FOR KANSAS
NATIONAL WEATHER SERVICE GOODLAND KS
700 AM CDT TUE APR 22 2014

NOTE:  "FAIR" INDICATES FEW OR NO CLOUDS BELOW 12,000 FEET WITH NO
SIGNIFICANT WEATHER AND/OR OBSTRUCTIONS TO VISIBILITY.

KSZ001>006-013>018-027>032-041>047-221300-
NORTHWEST KANSAS

CITY           SKY/WX    TMP DP  RH WIND       PRES   REMARKS
GOODLAND       CLEAR     42  31  64 S14       30.13F
6HR MIN TEMP:  42; 6HR MAX TEMP:  45;

HAYS           CLEAR     41  30  65 CALM      30.15R
HILL CITY      CLEAR     39  34  82 CALM      30.15S
6HR MIN TEMP:  39; 6HR MAX TEMP:  47;

RUSSELL        CLEAR     40  28  62 S7        30.13S
6HR MIN TEMP:  38; 6HR MAX TEMP:  52;

$$

KSZ061>065-074>080-084>089-221300-
SOUTHWEST KANSAS

CITY           SKY/WX    TMP DP  RH WIND       PRES   REMARKS
DODGE CITY     CLEAR     43  30  60 SE9       30.15S
6HR MIN TEMP:  41; 6HR MAX TEMP:  49;

ELKHART          N/A     47  36  66 S9          N/A
GARDEN CITY    CLEAR     44  33  65 SE8       30.14F
6HR MIN TEMP:  41; 6HR MAX TEMP:  52;

GREAT BEND     CLEAR     39  27  60 CALM      30.15S
LIBERAL        CLEAR     48  30  49 SE5       30.17S
PRATT          CLEAR     45  28  53 CALM      30.16S
$$

KSZ066>073-081>083-090>101-221300-
SOUTHEAST KANSAS

CITY           SKY/WX    TMP DP  RH WIND       PRES   REMARKS
CHANUTE        CLEAR     47  37  68 N7        30.12R
6HR MIN TEMP:  47; 6HR MAX TEMP:  59;

COFFEYVILLE    CLEAR     48  40  73 NW6       30.10R
6HR MIN TEMP:  47; 6HR MAX TEMP:  58;

HUTCHINSON     CLEAR     51  28  41 E8        30.14S
6HR MIN TEMP:  49; 6HR MAX TEMP:  56;

MEDICINE LODGE   N/A     49  33  54 S3        30.14R
NEWTON         CLEAR     46  27  46 NE6       30.16S
PARSONS        CLEAR     50  38  63 N5        30.11R
6HR MIN TEMP:  49; 6HR MAX TEMP:  58;

WICHITA INTL   PTCLDY    53  30  41 NE8       30.14R
6HR MIN TEMP:  47; 6HR MAX TEMP:  60;

WICHITA JABRA  CLEAR     45  30  55 N7        30.14R
6HR MIN TEMP:  45; 6HR MAX TEMP:  52;

WICHITA MCCONL CLEAR     50  30  45 NE12      30.14R
WINFIELD       CLEAR     45  34  65 N6        30.14R
6HR MIN TEMP:  44; 6HR MAX TEMP:  53;

$$

KSZ007>012-019>026-033>040-048>060-102>105-221300-
NORTHEAST KANSAS

CITY           SKY/WX    TMP DP  RH WIND       PRES   REMARKS
CONCORDIA      CLEAR     39  29  67 E5        30.15S
6HR MIN TEMP:  36; 6HR MAX TEMP:  52;

EMPORIA        CLEAR     45  34  65 N8        30.14R
6HR MIN TEMP:  45; 6HR MAX TEMP:  55;

LAWRENCE       CLEAR     39  33  79 NW5       30.15R
6HR MIN TEMP:  37; 6HR MAX TEMP:  56;

MANHATTAN      CLEAR     46  33  60 NE3       30.15R
6HR MIN TEMP:  45; 6HR MAX TEMP:  57;

OLATHE IND     CLEAR     42  34  73 N5        30.14R
6HR MIN TEMP:  38; 6HR MAX TEMP:  53;

OLATHE EXE     CLEAR     48  33  56 N9        30.12R
6HR MIN TEMP:  48; 6HR MAX TEMP:  59;

SALINA         CLEAR     40  27  59 CALM      30.15R
6HR MIN TEMP:  39; 6HR MAX TEMP:  51;

TOPEKA BILLARD CLEAR     46  35  65 CALM      30.15R
6HR MIN TEMP:  45; 6HR MAX TEMP:  59;

TOPEKA FORBES  CLEAR     45  34  65 N6        30.14R
6HR MIN TEMP:  44; 6HR MAX TEMP:  58;

$$



USA.gov is the U.S. government's official web portal to all federal, state and local government web resources and services.